TimeEDT,TemperatureF,Dew PointF,Humidity,Sea Level PressureIn,VisibilityMPH,Wind Direction,Wind SpeedMPH,Gust SpeedMPH,PrecipitationIn,Events,Conditions,WindDirDegrees,DateUTC
12:15 AM,59.2,51.8,77,30.29,10.0,SE,9.2,-,N/A,,Clear,140,2013-09-18 04:15:00
12:35 AM,59.4,51.4,75,30.29,10.0,SE,9.2,-,N/A,,Clear,130,2013-09-18 04:35:00
12:55 AM,59.2,51.4,75,30.28,10.0,SE,9.2,-,N/A,,Clear,130,2013-09-18 04:55:00
1:15 AM,59.2,51.4,75,30.28,10.0,SE,10.4,-,N/A,,Clear,130,2013-09-18 05:15:00
1:35 AM,59.0,51.4,76,30.28,10.0,SE,9.2,-,N/A,,Clear,140,2013-09-18 05:35:00
1:55 AM,58.3,51.8,79,30.28,10.0,SE,6.9,-,N/A,,Clear,140,2013-09-18 05:55:00
2:15 AM,58.1,51.8,80,30.28,10.0,SE,5.8,-,N/A,,Clear,130,2013-09-18 06:15:00
2:35 AM,58.1,51.8,80,30.27,10.0,SE,6.9,-,N/A,,Clear,140,2013-09-18 06:35:00
2:55 AM,58.3,52.0,80,30.27,10.0,SE,6.9,-,N/A,,Mostly Cloudy,140,2013-09-18 06:55:00
3:15 AM,58.1,51.8,80,30.26,10.0,SE,6.9,-,N/A,,Scattered Clouds,140,2013-09-18 07:15:00
3:35 AM,58.3,51.8,79,30.26,10.0,SSE,6.9,-,N/A,,Scattered Clouds,150,2013-09-18 07:35:00
3:55 AM,58.1,51.8,80,30.26,10.0,SE,6.9,-,N/A,,Scattered Clouds,140,2013-09-18 07:55:00
4:15 AM,57.6,51.8,81,30.25,10.0,SE,5.8,-,N/A,,Mostly Cloudy,140,2013-09-18 08:15:00
4:35 AM,58.1,51.8,80,30.26,10.0,SE,5.8,-,N/A,,Mostly Cloudy,140,2013-09-18 08:35:00
4:55 AM,58.1,51.3,78,30.26,10.0,SE,4.6,-,N/A,,Scattered Clouds,140,2013-09-18 08:55:00
5:15 AM,57.6,51.4,80,30.25,10.0,SE,4.6,-,N/A,,Mostly Cloudy,140,2013-09-18 09:15:00
5:35 AM,56.8,51.6,83,30.25,10.0,SE,5.8,-,N/A,,Mostly Cloudy,140,2013-09-18 09:35:00
5:55 AM,57.2,51.4,81,30.25,10.0,SE,6.9,-,N/A,,Scattered Clouds,140,2013-09-18 09:55:00
6:15 AM,57.2,51.3,81,30.26,10.0,SE,5.8,-,N/A,,Scattered Clouds,140,2013-09-18 10:15:00
6:35 AM,57.4,51.4,81,30.26,10.0,SSE,4.6,-,N/A,,Mostly Cloudy,150,2013-09-18 10:35:00
6:55 AM,57.2,51.4,81,30.26,10.0,SSE,4.6,-,N/A,,Mostly Cloudy,150,2013-09-18 10:55:00
7:15 AM,56.7,51.3,82,30.26,10.0,SE,4.6,-,N/A,,Scattered Clouds,140,2013-09-18 11:15:00
7:35 AM,57.4,51.3,80,30.27,10.0,SSE,4.6,-,N/A,,Scattered Clouds,150,2013-09-18 11:35:00
7:55 AM,58.1,51.6,79,30.27,10.0,SSE,4.6,-,N/A,,Mostly Cloudy,150,2013-09-18 11:55:00
8:15 AM,58.8,52.0,78,30.27,10.0,SSE,3.5,-,N/A,,Mostly Cloudy,160,2013-09-18 12:15:00
8:35 AM,59.9,52.3,76,30.28,10.0,SSE,3.5,-,N/A,,Mostly Cloudy,160,2013-09-18 12:35:00
8:55 AM,60.4,52.9,76,30.28,10.0,SSE,5.8,-,N/A,,Scattered Clouds,150,2013-09-18 12:55:00
9:15 AM,62.1,53.2,73,30.28,10.0,SSE,3.5,-,N/A,,Scattered Clouds,150,2013-09-18 13:15:00
9:35 AM,63.7,54.0,71,30.28,10.0,Calm,Calm,-,N/A,,Clear,0,2013-09-18 13:35:00
9:55 AM,64.9,54.7,69,30.28,10.0,SE,3.5,-,N/A,,Clear,130,2013-09-18 13:55:00
10:15 AM,66.0,54.3,66,30.28,10.0,SSW,3.5,-,N/A,,Clear,200,2013-09-18 14:15:00
10:35 AM,67.3,54.1,63,30.29,10.0,SSE,3.5,-,N/A,,Clear,150,2013-09-18 14:35:00
10:55 AM,67.3,54.5,63,30.29,10.0,SE,4.6,-,N/A,,Mostly Cloudy,140,2013-09-18 14:55:00
11:15 AM,68.4,54.9,62,30.29,10.0,WSW,4.6,-,N/A,,Overcast,240,2013-09-18 15:15:00
11:35 AM,69.4,55.6,61,30.28,10.0,WSW,3.5,-,N/A,,Mostly Cloudy,240,2013-09-18 15:35:00
11:55 AM,70.3,55.9,60,30.28,10.0,South,3.5,-,N/A,,Mostly Cloudy,170,2013-09-18 15:55:00
12:15 PM,70.3,57.0,63,30.28,10.0,West,4.6,-,N/A,,Overcast,260,2013-09-18 16:15:00
12:35 PM,68.5,56.8,66,30.28,10.0,West,5.8,-,N/A,,Overcast,280,2013-09-18 16:35:00
12:55 PM,67.8,57.0,68,30.27,10.0,WNW,4.6,-,N/A,,Overcast,300,2013-09-18 16:55:00
1:15 PM,67.1,56.7,69,30.27,10.0,NW,4.6,-,N/A,,Overcast,310,2013-09-18 17:15:00
1:35 PM,66.6,56.8,71,30.27,10.0,West,3.5,-,N/A,Rain,Light Rain,280,2013-09-18 17:35:00
1:55 PM,66.6,57.4,72,30.26,10.0,WNW,3.5,-,N/A,,Overcast,290,2013-09-18 17:55:00
2:15 PM,66.9,57.4,71,30.26,10.0,West,3.5,-,N/A,,Overcast,280,2013-09-18 18:15:00
2:35 PM,66.2,56.8,72,30.26,10.0,SW,4.6,-,N/A,,Overcast,220,2013-09-18 18:35:00
2:55 PM,65.8,57.0,73,30.26,10.0,SW,3.5,-,N/A,,Overcast,220,2013-09-18 18:55:00
3:15 PM,64.8,58.1,79,30.25,7.0,WSW,4.6,-,N/A,Rain,Rain,250,2013-09-18 19:15:00
3:35 PM,63.7,59.4,86,30.25,7.0,WNW,3.5,-,0.01,Rain,Light Rain,290,2013-09-18 19:35:00
3:55 PM,63.5,59.7,87,30.24,10.0,Calm,Calm,-,0.02,Rain,Rain,0,2013-09-18 19:55:00
4:15 PM,63.1,59.7,89,30.24,10.0,West,4.6,-,N/A,,Overcast,270,2013-09-18 20:15:00
4:35 PM,63.7,59.9,87,30.24,10.0,West,3.5,-,N/A,,Overcast,260,2013-09-18 20:35:00
4:55 PM,63.3,60.4,90,30.24,7.0,Calm,Calm,-,N/A,,Overcast,0,2013-09-18 20:55:00
5:15 PM,63.5,60.4,90,30.23,5.0,Calm,Calm,-,N/A,,Overcast,0,2013-09-18 21:15:00
5:35 PM,63.5,60.8,91,30.23,7.0,WSW,4.6,-,N/A,,Overcast,240,2013-09-18 21:35:00
5:55 PM,63.3,60.4,90,30.23,7.0,West,3.5,-,N/A,,Overcast,260,2013-09-18 21:55:00
6:15 PM,63.3,60.8,91,30.23,2.5,WSW,3.5,-,N/A,,Overcast,250,2013-09-18 22:15:00
6:35 PM,62.8,60.6,93,30.23,1.8,WSW,4.6,-,N/A,,Drizzle,240,2013-09-18 22:35:00
6:55 PM,62.6,60.4,93,30.23,1.8,WSW,4.6,-,N/A,,Heavy Drizzle,250,2013-09-18 22:55:00
7:15 PM,62.6,60.4,93,30.22,1.8,Calm,Calm,-,N/A,,Drizzle,0,2013-09-18 23:15:00
7:35 PM,62.6,60.8,94,30.21,2.0,Calm,Calm,-,N/A,,Overcast,0,2013-09-18 23:35:00
7:55 PM,62.6,60.8,94,30.22,1.8,Calm,Calm,-,N/A,,Overcast,0,2013-09-18 23:55:00
8:15 PM,62.6,60.8,94,30.22,0.8,Calm,Calm,-,N/A,,Overcast,0,2013-09-19 00:15:00
8:35 PM,62.6,60.8,94,30.23,7.0,Calm,Calm,-,N/A,,Overcast,0,2013-09-19 00:35:00
8:55 PM,62.8,60.8,93,30.23,2.0,Calm,Calm,-,N/A,,Overcast,0,2013-09-19 00:55:00
9:15 PM,62.6,60.8,94,30.23,0.8,Calm,Calm,-,N/A,,Overcast,0,2013-09-19 01:15:00
9:35 PM,62.6,60.8,94,30.24,4.0,Calm,Calm,-,N/A,,Overcast,0,2013-09-19 01:35:00
9:55 PM,62.6,60.8,94,30.24,5.0,Calm,Calm,-,N/A,,Overcast,0,2013-09-19 01:55:00
10:15 PM,62.8,60.4,92,30.24,7.0,Calm,Calm,-,N/A,,Overcast,0,2013-09-19 02:15:00
10:35 PM,62.8,60.8,93,30.24,5.0,Calm,Calm,-,N/A,,Overcast,0,2013-09-19 02:35:00
10:55 PM,62.8,60.4,92,30.24,7.0,South,3.5,-,N/A,,Overcast,180,2013-09-19 02:55:00
11:15 PM,62.8,60.3,91,30.23,7.0,Calm,Calm,-,N/A,,Overcast,0,2013-09-19 03:15:00
11:35 PM,62.8,60.3,91,30.23,7.0,Calm,Calm,-,N/A,,Overcast,0,2013-09-19 03:35:00
11:55 PM,63.3,60.3,90,30.24,7.0,WSW,3.5,-,N/A,,Overcast,240,2013-09-19 03:55:00